Date String (YYYY-MM-DD hh:mm:ss) UTC,Instrument flags,absolute air pressure of the measurement (hPa),sample flow rate (lpm),inlet stack bypass flow (lpm),air temperature of the measurement (°C),ambient temperature measured by the external sensor (°C),aerosol sample conditioner tube jacket temperature (°C),OPC LED temperature (°C),internal box temperature (°C),relative humidity of the measurement (%),span deviation,mass concentration of particles derived from Lorenz-Mie calculation of OPC scattering (μg/m³),mass concentration of particles derived from Lorenz-Mie calculation of OPC scattering (μg/m³),mass concentration of particles derived from Lorenz-Mie calculation of OPC scattering (μg/m³)
DateTimeUTC,F1_M11,P_M11,Q1_M11,Q2_M11,T1_M11,T2_M11,T3_M11,T4_M11,T5_M11,U1_M11,ZSPAN_M11,X0_M11,X2_M11,X1_M11
2023-08-04 06:00:00,SystemResetWarning,0833.4,5.00,000.00,031.0,027.2,000.0,039.1,031.5,32.8,-000.2,0012.55,0008.06,0007.02
2023-08-04 06:01:00,SystemResetWarning,0833.4,5.00,000.00,031.0,025.9,000.0,039.0,031.4,32.6,-000.2,0012.62,0008.16,0007.13
2023-08-04 06:02:00,SystemResetWarning,0833.4,5.00,000.00,030.9,025.6,000.0,038.9,031.1,32.4,-000.5,0012.59,0008.18,0007.16
2023-08-04 06:03:00,SystemResetWarning,0833.4,5.01,000.00,030.7,025.8,000.0,038.9,031.0,32.4,-000.4,0012.57,0008.13,0007.11
2023-08-04 06:04:00,SystemResetWarning,0833.4,5.01,000.00,030.6,026.2,000.0,038.9,031.0,32.5,-000.4,0012.42,0007.99,0006.99
2023-08-04 06:05:00,SystemResetWarning,0833.4,4.99,000.00,030.6,026.5,000.0,038.9,031.1,32.6,-000.1,0012.15,0007.78,0006.79
2023-08-04 06:06:00,SystemResetWarning,0833.4,4.99,000.00,030.5,026.9,000.0,038.9,031.2,32.5,0000.1,0012.26,0007.51,0006.57
2023-08-04 06:07:00,SystemResetWarning,0833.4,5.00,000.00,030.5,027.2,000.0,038.9,031.2,32.5,0001.1,0012.22,0007.31,0006.42
2023-08-04 06:08:00,SystemResetWarning,0833.4,5.01,000.00,030.5,027.5,000.0,038.9,031.3,32.4,0001.7,0012.06,0007.12,0006.26
2023-08-04 06:09:00,SystemResetWarning,0833.4,5.01,000.00,030.5,027.7,000.0,038.9,031.3,32.6,0001.6,0011.68,0006.85,0006.07
2023-08-04 06:10:00,SystemResetWarning,0833.4,5.00,000.00,030.5,027.9,000.0,038.8,031.3,32.7,0002.3,0011.18,0006.56,0005.81
2023-08-04 06:11:00,SystemResetWarning,0833.5,5.00,000.00,030.5,028.0,000.0,038.8,031.4,32.5,0002.8,0010.72,0006.25,0005.55
2023-08-04 06:12:00,SystemResetWarning,0833.4,5.00,000.00,030.4,028.1,000.0,038.8,031.4,32.9,0002.9,0010.40,0005.94,0005.28
2023-08-04 06:13:00,SystemResetWarning,0833.5,5.00,000.00,030.4,028.3,000.0,038.8,031.5,33.4,0003.3,0011.28,0005.78,0005.10
2023-08-04 06:14:00,SystemResetWarning,0833.4,5.00,000.00,030.5,028.4,000.0,038.8,031.5,33.4,0003.6,0011.57,0005.66,0004.99
2023-08-04 06:15:00,SystemResetWarning,0833.4,5.00,000.00,030.5,028.4,000.0,038.8,031.5,33.5,0004.1,0011.35,0005.50,0004.84
2023-08-04 06:16:00,SystemResetWarning,0833.5,5.00,000.00,030.5,028.5,000.0,038.8,031.6,33.5,0004.3,0011.25,0005.40,0004.75
2023-08-04 06:17:00,SystemResetWarning,0833.5,4.99,000.00,030.5,028.2,000.0,038.8,031.5,33.6,0003.4,0010.72,0005.28,0004.64
2023-08-04 06:18:00,SystemResetWarning,0833.4,4.99,000.00,030.4,026.5,000.0,038.6,031.3,33.6,0000.0,0010.43,0005.23,0004.57
2023-08-04 06:19:00,SystemResetWarning,0833.4,5.00,000.00,030.4,025.6,000.0,038.5,031.1,33.6,0000.0,0010.29,0005.18,0004.54
2023-08-04 06:20:00,SystemResetWarning,0833.4,5.01,000.00,030.2,025.6,000.0,038.5,030.9,33.6,0000.0,0010.25,0005.16,0004.52
2023-08-04 06:21:00,SystemResetWarning,0833.4,5.01,000.00,030.1,025.9,000.0,038.5,030.8,33.4,0000.0,0010.26,0005.13,0004.49
2023-08-04 06:22:00,SystemResetWarning,0833.4,5.00,000.00,030.0,026.3,000.0,038.5,030.9,33.3,0000.0,0010.31,0005.12,0004.49
2023-08-04 06:23:00,SystemResetWarning,0833.4,4.99,000.00,030.0,026.7,000.0,038.5,031.0,33.7,0000.0,0010.14,0005.07,0004.46
2023-08-04 06:24:00,SystemResetWarning,0833.4,5.00,000.00,030.0,027.0,000.0,038.5,031.0,33.6,0000.0,0009.01,0004.95,0004.37
2023-08-04 06:25:00,SystemResetWarning,0833.4,5.01,000.00,030.0,027.3,000.0,038.5,031.1,33.5,0000.0,0008.38,0004.84,0004.28
2023-08-04 06:26:00,SystemResetWarning,0833.3,5.00,000.00,030.0,027.5,000.0,038.5,031.1,33.6,0000.0,0008.17,0004.74,0004.21
2023-08-04 06:27:00,SystemResetWarning,0833.4,4.99,000.00,030.0,027.7,000.0,038.5,031.2,33.4,0000.0,0008.04,0004.64,0004.15
2023-08-04 06:28:00,SystemResetWarning,0833.4,5.00,000.00,030.0,027.9,000.0,038.5,031.2,33.6,0000.0,0007.90,0004.56,0004.09
2023-08-04 06:29:00,SystemResetWarning,0833.3,5.00,000.00,030.0,028.0,000.0,038.5,031.3,34.0,0000.0,0007.71,0004.43,0004.00
2023-08-04 06:30:00,SystemResetWarning,0833.3,5.00,000.00,030.0,028.2,000.0,038.5,031.3,34.0,0000.0,0007.49,0004.30,0003.90
2023-08-04 06:31:00,SystemResetWarning,0833.3,5.00,000.00,030.0,028.3,000.0,038.5,031.3,34.2,0000.0,0007.22,0004.18,0003.79
2023-08-04 06:32:00,SystemResetWarning,0833.3,4.99,000.00,030.0,028.4,000.0,038.5,031.4,34.3,0000.0,0007.04,0004.11,0003.73
2023-08-04 06:33:00,SystemResetWarning,0833.3,4.99,000.00,030.1,028.4,000.0,038.5,031.4,34.3,0000.0,0006.85,0004.06,0003.70
2023-08-04 06:34:00,SystemResetWarning,0833.3,5.00,000.00,030.1,028.5,000.0,038.5,031.4,34.0,0000.0,0006.97,0004.08,0003.69
2023-08-04 06:35:00,SystemResetWarning,0833.3,5.00,000.00,030.1,027.6,000.0,038.4,031.3,33.9,0000.0,0007.28,0004.15,0003.70
2023-08-04 06:36:00,SystemResetWarning,0833.3,5.00,000.00,030.0,026.0,000.0,038.3,031.1,33.8,0000.0,0007.38,0004.18,0003.72
2023-08-04 06:37:00,SystemResetWarning,0833.3,5.00,000.00,029.9,025.5,000.0,038.2,030.8,34.0,0000.0,0007.86,0004.25,0003.73
2023-08-04 06:38:00,SystemResetWarning,0833.4,5.01,000.00,029.8,025.7,000.0,038.2,030.7,34.2,0000.0,0008.87,0004.29,0003.76
2023-08-04 06:39:00,SystemResetWarning,0833.4,5.00,000.00,029.7,026.0,000.0,038.2,030.7,34.3,0000.0,0009.07,0004.32,0003.79
2023-08-04 06:40:00,SystemResetWarning,0833.4,5.00,000.00,029.7,026.4,000.0,038.2,030.8,34.1,0000.0,0009.17,0004.37,0003.81
2023-08-04 06:41:00,SystemResetWarning,0833.4,5.00,000.00,029.7,026.8,000.0,038.2,030.9,33.8,0000.0,0009.22,0004.41,0003.82
2023-08-04 06:42:00,SystemResetWarning,0833.5,5.01,000.00,029.7,027.1,000.0,038.2,031.0,33.8,0000.0,0009.35,0004.46,0003.82
2023-08-04 06:43:00,SystemResetWarning,0833.5,5.00,000.00,029.7,027.4,000.0,038.2,031.0,34.0,0000.0,0009.38,0004.45,0003.82
2023-08-04 06:44:00,SystemResetWarning,0833.5,5.00,000.00,029.7,027.6,000.0,038.2,031.0,33.8,0000.0,0009.37,0004.45,0003.82
2023-08-04 06:45:00,SystemResetWarning,0833.5,5.00,000.00,029.7,027.8,000.0,038.2,031.1,33.6,0000.0,0009.35,0004.42,0003.81
2023-08-04 06:46:00,SystemResetWarning,0833.4,5.00,000.00,029.7,027.9,000.0,038.2,031.1,33.4,0000.0,0009.18,0004.39,0003.80
2023-08-04 06:47:00,SystemResetWarning,0833.4,5.00,000.00,029.7,028.1,000.0,038.2,031.2,33.4,0000.0,0009.19,0004.38,0003.78
2023-08-04 06:48:00,SystemResetWarning,0833.4,4.99,000.00,029.7,028.2,000.0,038.2,031.2,33.6,0000.0,0008.83,0004.31,0003.77
2023-08-04 06:49:00,SystemResetWarning,0833.4,4.99,000.00,029.8,028.3,000.0,038.2,031.3,33.5,0000.0,0007.78,0004.28,0003.76
2023-08-04 06:50:00,SystemResetWarning,0833.4,5.00,000.00,029.8,028.4,000.0,038.2,031.3,33.3,0000.0,0008.15,0004.27,0003.74
2023-08-04 06:51:00,SystemResetWarning,0833.4,5.01,000.00,029.8,028.4,000.0,038.2,031.3,33.5,0000.0,0008.10,0004.25,0003.74
2023-08-04 06:52:00,SystemResetWarning,0833.4,5.01,000.00,029.8,028.5,000.0,038.2,031.4,33.3,0000.0,0008.06,0004.25,0003.75
2023-08-04 06:53:00,SystemResetWarning,0833.4,4.98,000.00,029.9,027.8,000.0,038.2,031.3,33.0,0000.0,0008.21,0004.24,0003.77
2023-08-04 06:54:00,SystemResetWarning,0833.4,5.00,000.00,029.8,026.1,000.0,038.1,031.1,32.9,0000.0,0008.42,0004.26,0003.80
2023-08-04 06:55:00,SystemResetWarning,0833.4,5.01,000.00,029.7,025.5,000.0,038.0,030.9,33.0,0000.0,0008.40,0004.26,0003.81
2023-08-04 06:56:00,SystemResetWarning,0833.5,5.00,000.00,029.6,025.6,000.0,038.0,030.7,33.1,0000.0,0008.39,0004.29,0003.83
2023-08-04 06:57:00,SystemResetWarning,0833.5,5.00,000.00,029.5,026.0,000.0,038.0,030.7,33.4,0000.0,0008.51,0004.33,0003.84
2023-08-04 06:58:00,SystemResetWarning,0833.5,5.01,000.00,029.5,026.4,000.0,038.0,030.8,33.8,0000.0,0008.44,0004.32,0003.85
2023-08-04 06:59:00,SystemResetWarning,0833.5,5.00,000.00,029.5,026.7,000.0,038.0,030.8,34.2,0000.0,0008.67,0004.33,0003.86
